Terminal Aerodrome Forecast
Issued by NWS

Home | Current Version | Previous Version | Text Only | Print | Product List | Glossary On
Versions: 1 2 3 4 5 6 7 8 9 10 11 12 13 14 15 16 17 18 19 20 21 22 23 24 25 26 27 28 29 30 31 32 33 34 35 36 37 38 39 40 41 42 43 44 45 46 47 48 49 50
000
FTUS41 KCTP 211524 AAA
TAFAOO
TAF AMD
KAOO 211524Z 2115/2212 22012G17KT P6SM SCT080
     FM211530 23010G18KT P6SM VCSH SCT025 BKN050
      TEMPO 2116/2117 27016G25KT 5SM SHRA OVC040
     FM212100 28010KT P6SM BKN040
     FM220900 30011KT P6SM OVC020=

USA.gov is the U.S. government's official web portal to all federal, state and local government web resources and services.